GFA183 OEJN-OBBI

Flight info

Callsign GFA183
Flight time N/A
Altitude 33000
Route EGREP2W/34C EGREP B417 PATOR T532 DAW DCT TASBA J852 KAVUR DCT KINIB N687 MIBRA J749 KFA H732 LADNA LADNA1
Aircraft A21N/M-VGDW/C

Departure

Time N/A
Airport King Abdulaziz International Airport (OEJN)

Arrival

Time 2026-04-29 00:51
Airport Bahrain International Airport (OBBI)
Time Latitude Longitude Altitude Speed Heading
2026-04-29 00:22 26.07565 49.22131 32818 ft 535 kts 67°
2026-04-29 00:22 26.08888 49.25992 32804 ft 534 kts 67°
2026-04-29 00:22 26.10205 49.29846 32642 ft 525 kts 68°
2026-04-29 00:23 26.11488 49.33627 31557 ft 523 kts 68°
2026-04-29 00:23 26.12338 49.36136 30750 ft 524 kts 68°
2026-04-29 00:23 26.14047 49.41180 28956 ft 526 kts 69°
2026-04-29 00:23 26.15327 49.44959 28027 ft 515 kts 69°
2026-04-29 00:24 26.16566 49.48621 27430 ft 496 kts 69°
2026-04-29 00:24 26.17762 49.52163 26880 ft 480 kts 70°
2026-04-29 00:24 26.18546 49.54488 26482 ft 472 kts 70°
2026-04-29 00:24 26.19688 49.57874 25890 ft 462 kts 70°
2026-04-29 00:25 26.20788 49.61146 25340 ft 452 kts 70°
2026-04-29 00:25 26.21879 49.64394 24788 ft 443 kts 70°
2026-04-29 00:25 26.22947 49.67578 24228 ft 435 kts 70°
2026-04-29 00:25 26.23999 49.70705 23682 ft 427 kts 71°
2026-04-29 00:26 26.25028 49.73768 22984 ft 418 kts 71°
2026-04-29 00:26 26.26052 49.76822 22050 ft 429 kts 70°
2026-04-29 00:26 26.27135 49.80059 21410 ft 463 kts 70°
2026-04-29 00:26 26.28296 49.83528 20830 ft 488 kts 70°
2026-04-29 00:27 26.29486 49.87087 20236 ft 497 kts 70°
2026-04-29 00:27 26.30672 49.90631 19089 ft 479 kts 70°
2026-04-29 00:27 26.31821 49.94082 17752 ft 469 kts 69°
2026-04-29 00:27 26.32944 49.97455 16226 ft 459 kts 69°
2026-04-29 00:28 26.34047 50.00763 14784 ft 453 kts 70°
2026-04-29 00:28 26.35138 50.04042 13485 ft 447 kts 70°
2026-04-29 00:28 26.36196 50.07250 12250 ft 435 kts 70°
2026-04-29 00:28 26.37231 50.10382 10938 ft 426 kts 70°
2026-04-29 00:29 26.38244 50.13411 9691 ft 416 kts 70°
2026-04-29 00:29 26.39246 50.16401 8356 ft 407 kts 70°
2026-04-29 00:29 26.40217 50.19323 7073 ft 398 kts 70°
2026-04-29 00:29 26.41169 50.22195 5941 ft 390 kts 70°
2026-04-29 00:30 26.42105 50.25012 5203 ft 384 kts 70°
2026-04-29 00:30 26.42989 50.27780 4521 ft 375 kts 74°
2026-04-29 00:30 26.43342 50.30603 3930 ft 358 kts 90°
2026-04-29 00:30 26.43086 50.33251 3374 ft 330 kts 103°
2026-04-29 00:31 26.42352 50.35560 3084 ft 301 kts 116°
2026-04-29 00:31 26.41387 50.37487 2988 ft 269 kts 120°
2026-04-29 00:31 26.40474 50.39181 2989 ft 244 kts 121°
2026-04-29 00:31 26.39634 50.40747 2998 ft 227 kts 120°
2026-04-29 00:32 26.38842 50.42233 2996 ft 222 kts 120°
2026-04-29 00:32 26.38057 50.43723 2996 ft 222 kts 120°
2026-04-29 00:32 26.37277 50.45209 2996 ft 222 kts 120°
2026-04-29 00:32 26.36499 50.46698 2991 ft 221 kts 120°
2026-04-29 00:33 26.35793 50.48053 3047 ft 192 kts 120°
2026-04-29 00:33 26.35140 50.49303 2825 ft 183 kts 119°
2026-04-29 00:33 26.34489 50.50537 2358 ft 185 kts 121°
2026-04-29 00:33 26.33776 50.51742 2028 ft 186 kts 123°
2026-04-29 00:34 26.33069 50.52956 1785 ft 184 kts 121°
2026-04-29 00:34 26.32438 50.54051 1618 ft 149 kts 121°
2026-04-29 00:34 26.31896 50.54996 1407 ft 144 kts 121°
2026-04-29 00:34 26.31358 50.55932 1225 ft 143 kts 121°
2026-04-29 00:35 26.30828 50.56854 1040 ft 143 kts 122°
2026-04-29 00:35 26.30296 50.57780 870 ft 142 kts 122°
2026-04-29 00:35 26.29764 50.58707 697 ft 143 kts 122°
2026-04-29 00:35 26.29226 50.59643 524 ft 145 kts 121°
2026-04-29 00:36 26.28684 50.60586 346 ft 144 kts 121°
2026-04-29 00:36 26.28140 50.61534 152 ft 145 kts 121°
2026-04-29 00:36 26.27602 50.62472 39 ft 139 kts 122°
2026-04-29 00:36 26.27064 50.63396 405 ft 147 kts 121°
2026-04-29 00:37 26.26474 50.64425 1106 ft 170 kts 121°
2026-04-29 00:37 26.25763 50.65684 1516 ft 223 kts 120°
2026-04-29 00:37 26.24820 50.67395 1492 ft 283 kts 120°
2026-04-29 00:37 26.23806 50.69282 2477 ft 293 kts 119°
2026-04-29 00:38 26.22714 50.71364 2636 ft 331 kts 119°
2026-04-29 00:38 26.21687 50.73766 2834 ft 354 kts 110°
2026-04-29 00:38 26.21152 50.76469 3460 ft 355 kts 94°
2026-04-29 00:38 26.21261 50.79185 4387 ft 355 kts 82°
2026-04-29 00:39 26.21914 50.81841 4499 ft 353 kts 68°
2026-04-29 00:39 26.22952 50.84229 4342 ft 333 kts 59°
2026-04-29 00:39 26.24446 50.86097 4164 ft 315 kts 40°
2026-04-29 00:39 26.25978 50.87748 3998 ft 299 kts 51°
2026-04-29 00:40 26.27352 50.89413 3832 ft 286 kts 45°
2026-04-29 00:40 26.28767 50.90900 3707 ft 271 kts 36°
2026-04-29 00:40 26.30449 50.91597 3643 ft 256 kts
2026-04-29 00:40 26.32206 50.91213 2920 ft 270 kts 333°
2026-04-29 00:41 26.33631 50.89834 2647 ft 263 kts 311°
2026-04-29 00:41 26.34680 50.88231 2532 ft 253 kts 303°
2026-04-29 00:41 26.35541 50.86568 2356 ft 245 kts 298°
2026-04-29 00:41 26.36273 50.84876 2504 ft 239 kts 296°
2026-04-29 00:42 26.36936 50.83207 2365 ft 238 kts 295°
2026-04-29 00:42 26.37571 50.81492 2496 ft 238 kts 293°
2026-04-29 00:42 26.38179 50.79769 2692 ft 238 kts 291°
2026-04-29 00:42 26.38754 50.78030 2887 ft 240 kts 290°
2026-04-29 00:43 26.39302 50.76269 2758 ft 240 kts 289°
2026-04-29 00:43 26.39823 50.74526 2490 ft 240 kts 289°
2026-04-29 00:43 26.40334 50.72734 2020 ft 244 kts 288°
2026-04-29 00:43 26.40835 50.70947 1784 ft 235 kts 289°
2026-04-29 00:44 26.41363 50.69270 1661 ft 221 kts 290°
2026-04-29 00:44 26.41849 50.67760 1743 ft 197 kts 290°
2026-04-29 00:44 26.42304 50.66353 1792 ft 184 kts 290°
2026-04-29 00:44 26.42667 50.65039 2048 ft 177 kts 285°
2026-04-29 00:45 26.42793 50.63689 2107 ft 175 kts 269°
2026-04-29 00:45 26.42573 50.62374 2201 ft 174 kts 252°
2026-04-29 00:45 26.42032 50.61234 2296 ft 153 kts 232°
2026-04-29 00:45 26.41182 50.60300 2274 ft 186 kts 223°
2026-04-29 00:46 26.40372 50.59455 2339 ft 142 kts 220°
2026-04-29 00:46 26.39622 50.58725 2232 ft 144 kts 221°
2026-04-29 00:46 26.38896 50.57961 2147 ft 142 kts 220°
2026-04-29 00:46 26.38133 50.57223 2001 ft 148 kts 219°
2026-04-29 00:47 26.37339 50.56465 1809 ft 149 kts 218°
2026-04-29 00:47 26.36499 50.55825 1765 ft 146 kts 204°
2026-04-29 00:47 26.35526 50.55526 1662 ft 146 kts 188°
2026-04-29 00:47 26.34519 50.55381 1603 ft 144 kts 178°
2026-04-29 00:48 26.33566 50.55616 1594 ft 139 kts 153°
2026-04-29 00:48 26.32723 50.56132 1560 ft 139 kts 148°
2026-04-29 00:48 26.31852 50.56599 1336 ft 136 kts 150°
2026-04-29 00:48 26.31079 50.57139 1155 ft 131 kts 140°
2026-04-29 00:49 26.30409 50.57801 946 ft 126 kts 134°
2026-04-29 00:49 26.29864 50.58531 653 ft 118 kts 124°
2026-04-29 00:49 26.29403 50.59305 477 ft 128 kts 121°
2026-04-29 00:49 26.28925 50.60147 407 ft 121 kts 123°
2026-04-29 00:50 26.28481 50.60909 259 ft 120 kts 121°
2026-04-29 00:50 26.28028 50.61716 139 ft 124 kts 122°
2026-04-29 00:50 26.27575 50.62499 21 ft 112 kts 122°
2026-04-29 00:50 26.27220 50.63124 21 ft 79 kts 122°
2026-04-29 00:51 26.27033 50.63446 21 ft 1 kts 165°
2026-04-29 00:51 26.27015 50.63457 20 ft 6 kts 153°
2026-04-29 00:51 26.26963 50.63473 20 ft 10 kts 179°
2026-04-29 00:51 26.26882 50.63425 24 ft 17 kts 214°
2026-04-29 00:52 26.26792 50.63360 26 ft 0 kts 213°
2026-04-29 00:52 26.26790 50.63359 26 ft 0 kts 213°
2026-04-29 00:52 26.26783 50.63354 26 ft 3 kts 213°
2026-04-29 00:52 26.26749 50.63330 26 ft 8 kts 211°
2026-04-29 00:53 26.26697 50.63296 26 ft 0 kts 212°
2026-04-29 00:53 26.26686 50.63288 27 ft 4 kts 212°
2026-04-29 00:53 26.26684 50.63287 27 ft 0 kts 212°